• In Russia
  • List of Countries
  • For 7 days
  • Water Temperature
  • Satellite Maps
  • Weather Map
  • Weather Widgets
  • user-avatar
    Login

    Hourly Weather Sharalday

    Today, 16 July, Monday

    Time Temperature Precipitation Wind Pressure Humidity
    00:00 +19°C° 0.1 mm 1 mps 691 mmHg 79%
    01:00 +19°C° 0 mm 1 mps 691 mmHg 81%
    02:00 +19°C° 0 mm 1 mps 691 mmHg 82%
    03:00 +18°C° 0 mm 1 mps 691 mmHg 83%
    04:00 +18°C° 0 mm 1 mps 691 mmHg 84%
    05:00 +19°C° 0 mm 1 mps 691 mmHg 78%
    06:00 +21°C° 0 mm 1 mps 691 mmHg 73%
    07:00 +22°C° 0 mm 1 mps 691 mmHg 68%
    08:00 +23°C° 0.2 mm 1 mps 691 mmHg 64%
    09:00 +25°C° 0.2 mm 1 mps 691 mmHg 60%
    10:00 +26°C° 0.2 mm 1 mps 691 mmHg 55%
    11:00 +27°C° 0.4 mm 1 mps 691 mmHg 52%
    12:00 +28°C° 0.4 mm 1 mps 691 mmHg 49%
    13:00 +29°C° 0.4 mm 1 mps 691 mmHg 46%
    14:00 +28°C° 0.3 mm 1 mps 691 mmHg 47%
    15:00 +28°C° 0.3 mm 1 mps 691 mmHg 48%
    16:00 +28°C° 0.3 mm 1 mps 691 mmHg 50%
    17:00 +27°C° 0.1 mm 1 mps 690 mmHg 54%
    18:00 +26°C° 0.1 mm 1 mps 690 mmHg 58%
    19:00 +24°C° 0.1 mm 1 mps 690 mmHg 63%
    20:00 +23°C° 0.2 mm 1 mps 690 mmHg 68%
    21:00 +21°C° 0.2 mm 1 mps 690 mmHg 73%
    22:00 +20°C° 0.2 mm 1 mps 691 mmHg 79%
    23:00 +19°C° 0.1 mm 1 mps 691 mmHg 80%

    Tomorrow, 17 July, Tuesday

    Time Temperature Precipitation Wind Pressure Humidity
    00:00 +19°C° 0.1 mm 1 mps 691 mmHg 82%
    01:00 +18°C° 0.1 mm 1 mps 691 mmHg 84%
    02:00 +18°C° 0 mm 1 mps 691 mmHg 86%
    03:00 +16°C° 0 mm 1 mps 691 mmHg 87%
    04:00 +16°C° 0 mm 1 mps 691 mmHg 89%
    05:00 +18°C° 0 mm 1 mps 691 mmHg 84%
    06:00 +19°C° 0 mm 2 mps 691 mmHg 80%
    07:00 +21°C° 0 mm 2 mps 692 mmHg 75%
    08:00 +24°C° 0 mm 2 mps 692 mmHg 67%
    09:00 +25°C° 0 mm 3 mps 692 mmHg 59%
    10:00 +27°C° 0 mm 3 mps 692 mmHg 51%
    11:00 +28°C° 0.4 mm 3 mps 692 mmHg 50%
    12:00 +29°C° 0.4 mm 3 mps 691 mmHg 49%
    13:00 +30°C° 0.4 mm 3 mps 691 mmHg 48%
    14:00 +30°C° 0.2 mm 3 mps 691 mmHg 46%
    15:00 +30°C° 0.2 mm 3 mps 691 mmHg 45%
    16:00 +30°C° 0.2 mm 3 mps 691 mmHg 43%
    17:00 +29°C° 0.1 mm 3 mps 691 mmHg 48%
    18:00 +27°C° 0.1 mm 3 mps 691 mmHg 54%
    19:00 +26°C° 0.1 mm 2 mps 691 mmHg 59%
    20:00 +24°C° 0.1 mm 2 mps 691 mmHg 65%
    21:00 +21°C° 0.1 mm 2 mps 691 mmHg 71%
    22:00 +19°C° 0.1 mm 2 mps 691 mmHg 76%
    23:00 +18°C° 0.1 mm 2 mps 691 mmHg 79%

    Day after tomorrow, 18 July, Wednesday

    Time Temperature Precipitation Wind Pressure Humidity
    00:00 +18°C° 0.1 mm 2 mps 690 mmHg 82%
    01:00 +18°C° 0.1 mm 1 mps 690 mmHg 84%
    02:00 +18°C° 0.1 mm 1 mps 690 mmHg 86%
    03:00 +16°C° 0.1 mm 1 mps 690 mmHg 87%
    04:00 +16°C° 0.1 mm 1 mps 690 mmHg 88%
    05:00 +18°C° 0 mm 2 mps 691 mmHg 82%
    06:00 +19°C° 0 mm 2 mps 691 mmHg 76%
    07:00 +21°C° 0 mm 2 mps 691 mmHg 70%
    08:00 +24°C° 0 mm 2 mps 691 mmHg 63%
    09:00 +26°C° 0 mm 2 mps 692 mmHg 56%
    10:00 +28°C° 0 mm 2 mps 692 mmHg 50%
    11:00 +29°C° 0.1 mm 2 mps 692 mmHg 47%
    12:00 +30°C° 0.1 mm 2 mps 691 mmHg 43%
    13:00 +31°C° 0.1 mm 2 mps 691 mmHg 40%
    14:00 +31°C° 0.1 mm 2 mps 691 mmHg 43%
    15:00 +30°C° 0.1 mm 2 mps 691 mmHg 47%
    16:00 +29°C° 0.1 mm 2 mps 691 mmHg 50%
    17:00 +28°C° 0 mm 2 mps 691 mmHg 54%
    18:00 +27°C° 0 mm 2 mps 691 mmHg 58%
    19:00 +26°C° 0 mm 1 mps 691 mmHg 62%
    20:00 +24°C° 0.4 mm 1 mps 691 mmHg 69%
    21:00 +23°C° 0.4 mm 1 mps 691 mmHg 75%
    22:00 +21°C° 0.4 mm 1 mps 691 mmHg 82%
    23:00 +20°C° 0.7 mm 1 mps 691 mmHg 85%

    19 July, Thursday

    Time Temperature Precipitation Wind Pressure Humidity
    00:00 +20°C° 0.7 mm 1 mps 691 mmHg 87%
    01:00 +20°C° 0.7 mm 1 mps 691 mmHg 90%
    02:00 +19°C° 0.3 mm 1 mps 691 mmHg 91%
    03:00 +19°C° 0.3 mm 1 mps 691 mmHg 92%
    04:00 +19°C° 0.3 mm 1 mps 691 mmHg 93%
    05:00 +20°C° 0 mm 1 mps 691 mmHg 90%
    06:00 +21°C° 0 mm 1 mps 691 mmHg 87%
    07:00 +22°C° 0 mm 1 mps 692 mmHg 85%
    08:00 +24°C° 0.3 mm 1 mps 692 mmHg 78%
    09:00 +26°C° 0.3 mm 2 mps 692 mmHg 72%
    10:00 +27°C° 0.3 mm 2 mps 692 mmHg 66%
    11:00 +29°C° 0.2 mm 2 mps 692 mmHg 59%
    12:00 +30°C° 0.2 mm 2 mps 691 mmHg 52%
    13:00 +32°C° 0.2 mm 1 mps 691 mmHg 45%
    14:00 +32°C° 0 mm 2 mps 691 mmHg 43%
    15:00 +32°C° 0 mm 2 mps 691 mmHg 42%
    16:00 +32°C° 0 mm 2 mps 690 mmHg 41%
    17:00 +31°C° 0 mm 2 mps 690 mmHg 47%
    18:00 +29°C° 0 mm 3 mps 690 mmHg 53%
    19:00 +28°C° 0 mm 3 mps 689 mmHg 59%
    20:00 +26°C° 0.2 mm 3 mps 689 mmHg 65%
    21:00 +25°C° 0.2 mm 3 mps 689 mmHg 71%
    22:00 +22°C° 0.2 mm 3 mps 688 mmHg 77%
    23:00 +23°C° 0.4 mm 2 mps 688 mmHg 80%

    20 July, Friday

    Time Temperature Precipitation Wind Pressure Humidity
    00:00 +21°C° 0.4 mm 2 mps 688 mmHg 83%
    01:00 +21°C° 0.4 mm 2 mps 687 mmHg 86%
    02:00 +20°C° 1.3 mm 2 mps 687 mmHg 89%
    03:00 +20°C° 1.3 mm 2 mps 687 mmHg 92%
    04:00 +20°C° 1.3 mm 1 mps 687 mmHg 95%
    05:00 +20°C° 0.6 mm 2 mps 687 mmHg 92%
    06:00 +21°C° 0.6 mm 2 mps 687 mmHg 89%
    07:00 +23°C° 0.6 mm 2 mps 687 mmHg 86%
    08:00 +24°C° 0.1 mm 2 mps 687 mmHg 81%
    09:00 +25°C° 0.1 mm 2 mps 688 mmHg 77%
    10:00 +25°C° 0.1 mm 3 mps 688 mmHg 73%
    11:00 +27°C° 0.1 mm 3 mps 688 mmHg 67%
    12:00 +28°C° 0.1 mm 4 mps 688 mmHg 61%
    13:00 +29°C° 0.1 mm 4 mps 688 mmHg 55%
    14:00 +29°C° 0 mm 4 mps 688 mmHg 56%
    15:00 +28°C° 0 mm 4 mps 688 mmHg 57%
    16:00 +28°C° 0 mm 4 mps 688 mmHg 57%
    17:00 +26°C° 0.5 mm 4 mps 688 mmHg 65%
    18:00 +24°C° 0.5 mm 3 mps 688 mmHg 72%
    19:00 +21°C° 0.5 mm 3 mps 688 mmHg 79%
    20:00 +19°C° 0.8 mm 2 mps 688 mmHg 83%
    21:00 +18°C° 0.8 mm 2 mps 688 mmHg 87%
    22:00 +16°C° 0.8 mm 2 mps 688 mmHg 90%
    23:00 +16°C° 0.8 mm 2 mps 688 mmHg 91%

    21 July, Saturday

    Time Temperature Precipitation Wind Pressure Humidity
    00:00 +15°C° 0.8 mm 1 mps 688 mmHg 91%
    01:00 +15°C° 0.8 mm 1 mps 688 mmHg 91%
    02:00 +14°C° 0.3 mm 1 mps 688 mmHg 92%
    03:00 +14°C° 0.3 mm 1 mps 688 mmHg 93%
    04:00 +13°C° 0.3 mm 1 mps 687 mmHg 94%
    05:00 +14°C° 0 mm 1 mps 688 mmHg 89%
    06:00 +15°C° 0 mm 1 mps 688 mmHg 83%
    07:00 +16°C° 0 mm 2 mps 689 mmHg 78%
    08:00 +18°C° 0 mm 2 mps 689 mmHg 71%
    09:00 +19°C° 0 mm 3 mps 689 mmHg 64%
    10:00 +21°C° 0 mm 4 mps 690 mmHg 57%
    11:00 +21°C° 0.2 mm 4 mps 690 mmHg 59%
    12:00 +20°C° 0.2 mm 5 mps 690 mmHg 62%
    13:00 +20°C° 0.2 mm 6 mps 690 mmHg 65%
    14:00 +19°C° 0.1 mm 6 mps 690 mmHg 66%
    15:00 +19°C° 0.1 mm 6 mps 691 mmHg 66%
    16:00 +19°C° 0.1 mm 5 mps 691 mmHg 66%
    17:00 +17°C° 0.1 mm 5 mps 691 mmHg 71%
    18:00 +17°C° 0.1 mm 4 mps 692 mmHg 76%
    19:00 +16°C° 0.1 mm 3 mps 692 mmHg 80%
    20:00 +16°C° 0 mm 3 mps 693 mmHg 83%
    21:00 +14°C° 0 mm 3 mps 693 mmHg 85%
    22:00 +14°C° 0 mm 3 mps 693 mmHg 88%
    23:00 +14°C° 0 mm 2 mps 693 mmHg 89%
    Show more